TIANWANG 1B (TW-1B)
1 40927U 15051C   19148.49048096  .00007048  00000-0  11134-3 0  9999
2 40927  97.1396 194.1048 0010471 101.2054   6.1798 15.53740439206721
TIANWANG 1A (TW-1A)
1 40928U 15051D   19148.52457003  .00001964  00000-0  50082-4 0  9993
2 40928  97.1475 180.2982 0012239 143.0307 358.5934 15.40644327205913
LAPAN A2
1 40931U 15052B   19147.66769131  .00000147  00000-0 -69370-4 0  9993
2 40931   5.9913 213.9010 0018232 203.4026 156.5267 14.76600055198009
LQSAT
1 40958U 15057A   19148.09917730  .00000008  00000-0  89363-5 0  9995
2 40958  97.8986 217.8755 0017115 313.9499  46.0325 14.73078777195627
CHUBUSAT 2
1 41338U 16012B   19147.80063956 +.00000248 +00000-0 +12518-4 0  9993
2 41338 031.0034 283.8900 0013930 246.8399 113.0769 15.00144585179624
CHUBUSAT 3
1 41339U 16012C   19148.43799717  .00000258  00000-0  13277-4 0  9999
2 41339  31.0106 277.9590 0013643 261.1190  98.7905 15.00321116179712
OUFTI-1
1 41458U 16025C   19147.85940516 +.00001372 +00000-0 +73175-4 0  9996
2 41458 098.1008 233.5940 0167967 070.7309 291.2000 15.05755948169287
E-STAR-2
1 41459U 16025D   19148.46889248  .00000429  00000-0  26112-4 0  9990
2 41459  98.0996 233.9096 0169293  69.9081 292.0273 15.05400319169358
AAUSAT 4
1 41460U 16025E   19148.27171638  .00001031  00000-0  55401-4 0  9991
2 41460  98.0942 234.8880 0159109  63.5538 298.1913 15.07261810169445
NUSAT 1
1 41557U 16033B   19148.48735141  .00000920  00000-0  37242-4 0  9994
2 41557  97.4174 236.1112 0014260  19.9627 340.2167 15.27160090166859
BEESAT 4
1 41619U 16040W   19147.70330543  .00001016  00000-0  46026-4 0  9999
2 41619  97.3688 210.3352 0013153 100.0890 260.1831 15.23065377150513
PRATHAM
1 41783U 16059A   19148.12381672  .00000034  00000-0  15881-4 0  9991
2 41783  98.0689 208.1799 0034994  92.0399 268.4811 14.62992229142397
ALSAT 1N
1 41789U 16059G   19148.40420180  .00000063  00000-0  20838-4 0  9996
2 41789  98.0706 210.4005 0029718  80.8431 279.6134 14.64240411142538
NAYIF 1
1 42017U 17008BX  19147.85441933 +.00000933 +00000-0 +39728-4 0  9997
2 42017 097.4041 215.1723 0004755 236.8167 123.2616 15.25461325126594
MAX VALIER SAT
1 42778U 17036P   19148.16131596  .00000574  00000-0  28152-4 0  9998
2 42778  97.3559 206.3002 0010818 304.6639  55.3577 15.21972869106964
